カタログに戻る

PAKSAT MM1R

運用中通信GEO
NORAD 59915·PAYLOAD·🇵🇰 Pakistan

打ち上げ May 30, 2024 から Xichang Satellite Launch Center

Loading…

TLE

最新Source: Space-Track

元期: Sep 14, 2026, 05:25 UTC

1 59915U 24104A   26257.22628410  .00000145  00000-0  00000-0 0  9997
2 59915   0.0398 228.2799 0001849 302.0447 302.5160  1.00272375  8420

AllMySatでPAKSAT MM1Rをリアルタイム追跡

Download on the App Store